Location: Newark
(17.9939°S, 31.0481°E)
Time: 13:47:08
(UTC+00:00)

A-11 Canister half - All Passes

Search period start: 15 November 2019 00:00
Search period end: 25 November 2019 00:00
Orbit: 1527 x 1682 km, 47.3° (Epoch: 14 November)

Date Brightness Start Highest point End Pass type
(mag) Time Alt. Az. Time Alt. Az. Time Alt. Az.
15 Nov - 03:30:28 10° S 03:35:51 15° SSE 03:41:16 10° ESE daylight
15 Nov - 05:33:23 10° SSW 05:43:07 51° SE 05:52:54 10° ENE daylight
15 Nov - 07:38:48 10° WSW 07:48:07 42° NW 07:57:25 10° NNE daylight
15 Nov - 18:39:13 10° NNE 18:44:45 17° NE 18:50:18 10° E night (unlit)
15 Nov - 20:39:43 10° NW 20:49:04 90° ENE 20:58:40 10° SE visible
15 Nov - 22:47:38 10° W 22:54:56 25° SSW 23:02:26 10° SSE visible
16 Nov - 03:08:59 10° S 03:14:01 15° SSE 03:19:05 10° SE daylight
16 Nov - 05:11:48 10° SSW 05:21:25 48° SE 05:31:06 10° ENE daylight
16 Nov - 07:17:02 10° WSW 07:26:28 45° NW 07:35:56 10° NNE daylight
16 Nov - 18:18:09 10° NNE 18:23:09 16° NE 18:28:09 10° E night (unlit)
16 Nov - 20:18:07 10° NW 20:27:26 85° NE 20:37:00 10° SE visible
16 Nov - 22:25:44 10° W 22:33:12 26° SSW 22:40:53 10° SSE visible
17 Nov - 02:47:30 10° S 02:52:11 14° SSE 02:56:53 10° SE visible
17 Nov - 04:50:12 10° SSW 04:59:43 45° SE 05:09:17 10° ENE daylight
17 Nov - 06:55:16 10° WSW 07:04:50 48° NW 07:14:25 10° NNE daylight
17 Nov - 17:57:12 10° NNE 18:01:33 14° NE 18:05:55 10° E night (unlit)
17 Nov - 19:56:32 10° NW 20:05:50 80° NE 20:15:21 10° SE visible
17 Nov - 22:03:51 10° W 22:11:28 27° SW 22:19:19 10° SSE visible
18 Nov - 02:26:02 10° S 02:30:20 13° SSE 02:34:40 10° SE visible
18 Nov - 04:28:37 10° SSW 04:38:01 43° SE 04:47:28 10° ENE daylight
18 Nov - 06:33:31 10° SW 06:43:12 52° NW 06:52:54 10° NNE daylight
18 Nov - 17:36:23 10° NNE 17:39:57 13° NE 17:43:31 10° ENE visible
18 Nov - 19:34:57 10° NW 19:44:13 75° NE 19:53:41 10° SE visible
18 Nov - 21:41:58 10° W 21:49:46 29° SW 21:57:44 10° SSE visible
19 Nov - 02:04:37 10° S 02:08:29 13° SSE 02:12:25 10° SE visible
19 Nov - 04:07:03 10° SSW 04:16:18 40° SE 04:25:37 10° ENE daylight
19 Nov - 06:11:47 10° SW 06:21:33 55° NW 06:31:22 10° NNE daylight
19 Nov - 17:15:53 10° NE 17:18:20 11° NE 17:20:48 10° ENE visible
19 Nov - 19:13:24 10° NNW 19:22:37 71° NE 19:32:00 10° SE visible
19 Nov - 21:20:07 10° W 21:28:03 30° SW 21:36:10 10° SSE visible
19 Nov - 23:35:35 10° SSW 23:36:24 10° SSW 23:37:14 10° S visible
20 Nov - 01:43:12 10° S 01:46:39 12° SSE 01:50:08 10° SE visible
20 Nov - 03:45:29 10° SSW 03:54:35 38° SE 04:03:46 10° ENE daylight
20 Nov - 05:50:05 10° SW 05:59:54 59° NW 06:09:48 10° NNE daylight
20 Nov - 18:51:50 10° NNW 19:01:01 66° NE 19:10:20 10° SE visible
20 Nov - 20:58:17 10° W 21:06:20 32° SW 21:14:37 10° SSE visible
20 Nov - 23:12:58 10° SSW 23:14:33 10° SSW 23:16:09 10° S visible
21 Nov - 01:21:48 10° S 01:24:47 11° SSE 01:27:47 10° SE visible
21 Nov - 03:23:55 10° SSW 03:32:51 36° SE 03:41:53 10° ENE daylight
21 Nov - 05:28:23 10° SW 05:38:16 63° NW 05:48:14 10° NNE daylight
21 Nov - 07:42:21 10° WNW 07:42:46 10° NW 07:43:11 10° NW daylight
21 Nov - 18:30:18 10° NNW 18:39:24 62° NE 18:48:39 10° SE visible
21 Nov - 20:36:27 10° W 20:44:38 34° SW 20:53:03 10° SSE visible
21 Nov - 22:50:34 10° SSW 22:52:42 11° SSW 22:54:50 10° S visible
22 Nov - 01:00:30 10° S 01:02:56 11° SSE 01:05:22 10° SSE visible
22 Nov - 03:02:22 10° SSW 03:11:08 34° SE 03:20:01 10° E daylight
22 Nov - 05:06:40 10° SW 05:16:37 67° NW 05:26:39 10° NNE daylight
22 Nov - 07:18:17 10° WNW 07:21:07 11° NW 07:23:58 10° NW daylight
22 Nov - 18:08:46 10° NNW 18:17:49 58° NE 18:26:57 10° SE visible
22 Nov - 20:14:38 10° WNW 20:22:57 36° SW 20:31:29 10° SSE visible
22 Nov - 22:28:16 10° SSW 22:30:51 11° SSW 22:33:28 10° S visible
23 Nov - 00:39:18 10° S 00:41:04 11° SSE 00:42:50 10° SSE visible
23 Nov - 02:40:49 10° SSW 02:49:24 32° SE 02:58:06 10° E visible
23 Nov - 04:45:00 10° SW 04:54:57 71° NW 05:05:03 10° NNE daylight
23 Nov - 06:55:32 10° WNW 06:59:29 13° NW 07:03:26 10° NNW daylight
23 Nov - 17:47:15 10° NNW 17:56:13 54° NE 18:05:14 10° SE visible
23 Nov - 19:52:49 10° WNW 20:01:16 38° SW 20:09:54 10° SSE visible
23 Nov - 22:06:01 10° SW 22:09:01 12° SSW 22:12:02 10° S visible
24 Nov - 00:18:27 10° S 00:19:12 10° SSE 00:19:57 10° SSE visible
24 Nov - 02:19:16 10° SSW 02:27:40 30° SE 02:36:10 10° E visible
24 Nov - 04:23:19 10° SW 04:33:18 75° NW 04:43:25 10° NE daylight
24 Nov - 06:33:06 10° W 06:37:50 14° NW 06:42:36 10° NNW daylight
24 Nov - 17:25:45 10° NNW 17:34:37 50° NE 17:43:31 10° ESE visible
24 Nov - 19:31:02 10° WNW 19:39:36 40° SW 19:48:19 10° SSE visible
24 Nov - 21:43:48 10° SW 21:47:11 12° SSW 21:50:35 10° S visible
